STARLINK-1765, 46344

Orbit data source: Space-Track

STARLINK-1765, 46344 is a payload satellite owned by SpaceX/Seattle (US) in LEO that was launched on Thu, 03 Sep 2020 UTC via an FALCON 9 launch vehicle from the Air Force Eastern Test Range (AFETR). Payload-class satellites include a variety of spacecraft equipped with specific instruments for various scientific and technological missions. These include communications satellites like Starlink; space stations such as the ISS; scientific satellites like the Hubble; Earth observation satellites from companies like Planet Labs, Umbra, and HawkEye 360; GPS; miniature CubeSats for education and research; and military/defense satellites.

Loading next visibility...
Identifier
46344, 2020-062V
Orbit
LEO
Country
Flag of USUS
Related business
Manufacturer
SpaceX/Seattle
Mission
Partially operational Commercial Communications
Bus & Motor
STARLINK, Unknown motor
Mass
260 kg wet, ~248 kg dry
Launch date (UTC)
2020-09-03 (6 years ago)
Launch vehicle
FALCON 9
Launch site
Air Force Eastern Test Range (AFETR)
Object type
Payload
Rocket body
Debris
Shape & HBR
Box + 1 Pan, 10.1 m
Radar Cross Section
13.562 m², Large (>1 m²)

Expand to show TLE details & history
Last TLE update: 5 hours ago

TLE from 5 hours ago
0 STARLINK-1765
1 46344U 20062V   26073.00002315  .00398601  71013-4  12474-2 0  9993
2 46344  53.0368 279.6571 0005009 233.5293 235.6286 15.90950653  5848
Epoch: 2026-03-14T00:00Z
TLE epoch observation values (Epoch: 2026-03-14T00:00:02.000Z)
Latitude
49.17597°
Longitude
-131.99566°
Altitude
307.105 km
Speed
7.729 km/s
True Right ascension
02h 38m 33s
True Declination
48° 59' 39"
Sunlit
Object was in daylight at epoch
Visualization orbit readout
Latitude
Unknown
Longitude
Unknown
Altitude
Unknown
Speed
Unknown
Apparent Right ascension
Unknown
Apparent Declination
Unknown
Sunlit
N/A
Visualization observer readout
Local Sidereal Time
09:20:25
Azimuth
Unknown
Elevation
Unknown
Doppler factor
Unknown
Orbital elements
Apogee altitude
303.25 km
Perigee altitude
296.56 km
Semi-major axis
6,678.042 km
Eccentricity
0.0005
Inclination
53.0368°
RAAN
279.6571°
Arg. of periapsis
233.5293°
True anomaly
235.58124°
Mean anomaly
235.6286°
Eccentric anomaly
235.60492°
Mean motion
3.97713 °/min
Orbital period
90.52 mins
BSTAR
0.0012474
Loading maneuver chart data...
Computing Atmospheric mass density...
Loading historical data...
Loading historical data...
Loading historical data...
Loading historical data...
Loading historical data...
Loading historical data...
Loading historical data...

Documentation

Showing up to 5 results
|